Weather History for Clovis, NM

Change the Weather History Date:

Tuesday, November 12, 2013

  Actual Average Record
Temperature  
Mean Temperature 36 °F -  
Max Temperature 44 °F 61 °F 82 °F (1956)
Min Temperature 28 °F 33 °F 9 °F (1940)
Degree Days  
Heating Degree Days 29    
Moisture  
Dew Point 24 °F    
Average Humidity 67    
Maximum Humidity 87    
Minimum Humidity 46    
Precipitation  
Precipitation 0.00 in - - ()
Sea Level Pressure  
Sea Level Pressure 30.66 in    
Wind  
Wind Speed 19 mph (NE)    
Max Wind Speed 32 mph    
Max Gust Speed 37 mph    
Visibility 9 miles    
Events      
Averages and records for this station are not official NWS values.
T = Trace of Precipitation, MM = Missing Value Source: NWS Daily Summary

Daily Weather History Graph

Daily Weather History Graph

Search for Another Location

Airport:

Trip Planner

Search our weather history database for the weather conditions in past years. The results will help you decide how hot, cold, wet, or windy it might be!

Date:

Astronomy

Nov. 12, 2013 Rise Set
Actual Time 6:23 AM MST 4:49 PM MST
Civil Twilight 5:56 AM MST 5:16 PM MST
Nautical Twilight 5:26 AM MST 5:46 PM MST
Astronomical Twilight 4:56 AM MST 6:16 PM MST
Moon 1:54 PM MST (11/12) 1:27 AM MST (11/12)
Length of Visible Light 11h 19m
Length of Day
10h 26m
Waxing Gibbous, 77% of the Moon is Illuminated
Nov 12
Waxing Gibbous
Nov 17
Full
Nov 25
Last Quarter
Dec 2
New
Dec 9
First Quarter

Hourly Weather History & Observations

Time (MST) Temp. Windchill Dew Point Humidity Pressure Visibility Wind Dir Wind Speed Gust Speed Precip Events Conditions
12:15 AM 35.6 °F 22.7 °F 32.0 °F 87% 30.52 in 4.0 mi NNE 28.8 mph 34.5 mph N/A   Overcast
12:35 AM 35.6 °F 23.0 °F 30.2 °F 81% 30.53 in 4.0 mi NNE 27.6 mph 32.2 mph N/A   Overcast
12:55 AM 33.8 °F 20.1 °F 26.6 °F 75% 30.54 in 4.0 mi NNE 29.9 mph 34.5 mph N/A   Overcast
1:15 AM 33.8 °F 21.0 °F 26.6 °F 75% 30.55 in 4.0 mi NNE 25.3 mph 33.4 mph N/A   Overcast
1:35 AM 33.8 °F 20.3 °F 26.6 °F 75% 30.56 in 4.0 mi NNE 28.8 mph 34.5 mph N/A   Overcast
1:55 AM 32.0 °F 18.1 °F 26.6 °F 80% 30.57 in 5.0 mi NNE 27.6 mph 33.4 mph N/A   Overcast
2:15 AM 32.0 °F 18.1 °F 26.6 °F 80% 30.57 in 5.0 mi NNE 27.6 mph 34.5 mph N/A   Overcast
2:35 AM 32.0 °F 17.2 °F 26.6 °F 80% 30.58 in 4.0 mi NNE 32.2 mph 36.8 mph N/A   Overcast
2:55 AM 30.2 °F 15.9 °F 24.8 °F 80% 30.59 in 7.0 mi NNE 26.5 mph 35.7 mph N/A   Overcast
3:15 AM 30.2 °F 16.2 °F 24.8 °F 80% 30.60 in 7.0 mi NNE 25.3 mph 34.5 mph N/A   Overcast
3:35 AM 30.2 °F 15.9 °F 24.8 °F 80% 30.61 in 9.0 mi NNE 26.5 mph 34.5 mph N/A   Overcast
3:55 AM 30.2 °F 15.9 °F 24.8 °F 80% 30.62 in 7.0 mi NNE 26.5 mph 33.4 mph N/A   Overcast
4:15 AM 30.2 °F 15.9 °F 24.8 °F 80% 30.64 in 5.0 mi NNE 26.5 mph 32.2 mph N/A   Overcast
4:35 AM 28.4 °F 14.4 °F 24.8 °F 86% 30.64 in 5.0 mi NNE 23.0 mph 32.2 mph N/A   Overcast
4:55 AM 28.4 °F 13.8 °F 24.8 °F 86% 30.65 in 5.0 mi NNE 25.3 mph 32.2 mph N/A   Overcast
5:15 AM 28.4 °F 13.8 °F 24.8 °F 86% 30.66 in 5.0 mi NNE 25.3 mph 33.4 mph N/A   Overcast
5:35 AM 28.4 °F 13.8 °F 24.8 °F 86% 30.66 in 5.0 mi NNE 25.3 mph 29.9 mph N/A   Overcast
5:55 AM 28.4 °F 14.7 °F 24.8 °F 86% 30.68 in 5.0 mi NNE 21.9 mph 28.8 mph N/A   Overcast
6:15 AM 28.4 °F 15.4 °F 24.8 °F 86% 30.68 in 7.0 mi NNE 19.6 mph 28.8 mph N/A   Overcast
6:35 AM 28.4 °F 15.4 °F 24.8 °F 86% 30.69 in 10.0 mi NNE 19.6 mph - N/A   Overcast
6:55 AM 28.4 °F 15.4 °F 24.8 °F 86% 30.71 in 10.0 mi NNE 19.6 mph 24.2 mph N/A   Overcast
7:15 AM 28.4 °F 16.2 °F 24.8 °F 86% 30.72 in 10.0 mi NNE 17.3 mph - N/A   Overcast
7:35 AM 28.4 °F 16.2 °F 24.8 °F 86% 30.73 in 10.0 mi NNE 17.3 mph - N/A   Overcast
7:55 AM 28.4 °F 17.0 °F 23.0 °F 80% 30.74 in 10.0 mi NNE 15.0 mph - N/A   Overcast
8:15 AM 30.2 °F 18.1 °F 24.8 °F 80% 30.75 in 10.0 mi NNE 18.4 mph - N/A   Overcast
8:35 AM 30.2 °F 18.9 °F 24.8 °F 80% 30.75 in 10.0 mi NNE 16.1 mph - N/A   Overcast
8:55 AM 30.2 °F 19.8 °F 24.8 °F 80% 30.74 in 10.0 mi NNE 13.8 mph - N/A   Overcast
9:15 AM 30.2 °F 18.1 °F 24.8 °F 80% 30.74 in 10.0 mi NNE 18.4 mph - N/A   Overcast
9:35 AM 30.2 °F 18.9 °F 26.6 °F 86% 30.74 in 10.0 mi NE 16.1 mph - N/A   Unknown
9:55 AM 32.0 °F 20.5 °F 24.8 °F 75% 30.75 in 10.0 mi NNE 18.4 mph - N/A   Overcast
10:15 AM 33.8 °F 23.9 °F 23.0 °F 65% 30.75 in 10.0 mi NNE 15.0 mph 18.4 mph N/A   Overcast
10:35 AM 33.8 °F 25.3 °F 24.8 °F 70% 30.74 in 10.0 mi NNE 11.5 mph 17.3 mph N/A   Overcast
10:55 AM 35.6 °F 26.6 °F 24.8 °F 65% 30.74 in 10.0 mi NNE 13.8 mph - N/A   Overcast
11:15 AM 37.4 °F 30.8 °F 26.6 °F 65% 30.72 in 10.0 mi NNE 9.2 mph - N/A   Overcast
11:35 AM 37.4 °F 32.1 °F 24.8 °F 60% 30.71 in 10.0 mi NNE 6.9 mph - N/A   Overcast
11:55 AM 39.2 °F 33.6 °F 26.6 °F 61% 30.70 in 10.0 mi East 8.1 mph - N/A   Mostly Cloudy
12:15 PM 41.0 °F 35.8 °F 26.6 °F 57% 30.69 in 10.0 mi NE 8.1 mph - N/A   Mostly Cloudy
12:35 PM 41.0 °F 34.7 °F 26.6 °F 57% 30.69 in 10.0 mi NE 10.4 mph 16.1 mph N/A   Scattered Clouds
12:55 PM 42.8 °F 37.0 °F 26.6 °F 53% 30.67 in 10.0 mi NNE 10.4 mph 18.4 mph N/A   Clear
1:15 PM 44.6 °F 38.8 °F 26.6 °F 49% 30.67 in 10.0 mi ENE 11.5 mph 17.3 mph N/A   Clear
1:35 PM 44.6 °F 39.2 °F 26.6 °F 49% 30.67 in 10.0 mi NE 10.4 mph - N/A   Clear
1:55 PM 44.6 °F 38.8 °F 26.6 °F 49% 30.66 in 10.0 mi NE 11.5 mph - N/A   Clear
2:15 PM 44.6 °F 40.2 °F 26.6 °F 49% 30.67 in 10.0 mi NE 8.1 mph - N/A   Clear
2:35 PM 44.6 °F 38.8 °F 26.6 °F 49% 30.67 in 10.0 mi NE 11.5 mph - N/A   Clear
2:55 PM 44.6 °F 40.2 °F 26.6 °F 49% 30.67 in 10.0 mi ENE 8.1 mph 16.1 mph N/A   Clear
3:15 PM 44.6 °F 41.4 °F 24.8 °F 46% 30.67 in 10.0 mi NE 5.8 mph - N/A   Clear
3:35 PM 44.6 °F 39.2 °F 24.8 °F 46% 30.67 in 10.0 mi NE 10.4 mph - N/A   Clear
3:55 PM 42.8 °F 37.0 °F 24.8 °F 49% 30.66 in 10.0 mi NE 10.4 mph - N/A   Partly Cloudy
4:15 PM 42.8 °F 37.5 °F 24.8 °F 49% 30.66 in 10.0 mi ENE 9.2 mph - N/A   Mostly Cloudy
4:35 PM 41.0 °F 35.8 °F 24.8 °F 53% 30.66 in 10.0 mi East 8.1 mph - N/A   Overcast
4:55 PM 41.0 °F 36.4 °F 23.0 °F 49% 30.66 in 10.0 mi East 6.9 mph - N/A   Overcast
5:15 PM 39.2 °F 33.6 °F 23.0 °F 52% 30.66 in 10.0 mi ESE 8.1 mph - N/A   Overcast
5:35 PM 39.2 °F 34.2 °F 23.0 °F 52% 30.66 in 10.0 mi ESE 6.9 mph - N/A   Overcast
5:55 PM 39.2 °F 35.0 °F 23.0 °F 52% 30.66 in 10.0 mi East 5.8 mph - N/A   Overcast
6:15 PM 39.2 °F 35.9 °F 21.2 °F 49% 30.67 in 10.0 mi ESE 4.6 mph - N/A   Overcast
6:35 PM 39.2 °F 37.0 °F 21.2 °F 49% 30.67 in 10.0 mi ESE 3.5 mph - N/A   Overcast
6:55 PM 37.4 °F - 21.2 °F 52% 30.67 in 10.0 mi Calm Calm - N/A   Overcast
7:15 PM 37.4 °F - 21.2 °F 52% 30.67 in 10.0 mi Calm Calm - N/A   Mostly Cloudy
7:35 PM 37.4 °F - 21.2 °F 52% 30.67 in 10.0 mi Calm Calm - N/A   Partly Cloudy
7:55 PM 37.4 °F 34.9 °F 23.0 °F 56% 30.67 in 10.0 mi South 3.5 mph - N/A   Partly Cloudy
8:15 PM 35.6 °F - 21.2 °F 56% 30.67 in 10.0 mi Calm Calm - N/A   Mostly Cloudy
8:35 PM 35.6 °F - 21.2 °F 56% 30.67 in 10.0 mi Calm Calm - N/A   Overcast
8:55 PM 37.4 °F - 21.2 °F 52% 30.66 in 10.0 mi Calm Calm - N/A   Overcast
9:15 PM 35.6 °F 32.8 °F 21.2 °F 56% 30.66 in 10.0 mi South 3.5 mph - N/A   Scattered Clouds
9:35 PM 33.8 °F 29.6 °F 21.2 °F 60% 30.65 in 10.0 mi SSW 4.6 mph - N/A   Clear
9:55 PM 33.8 °F 30.8 °F 21.2 °F 60% 30.65 in 10.0 mi West 3.5 mph - N/A   Clear
10:15 PM 33.8 °F 29.6 °F 21.2 °F 60% 30.64 in 10.0 mi West 4.6 mph - N/A   Clear
10:35 PM 32.0 °F 27.5 °F 19.4 °F 60% 30.64 in 10.0 mi West 4.6 mph - N/A   Clear
10:55 PM 32.0 °F 26.4 °F 21.2 °F 64% 30.63 in 10.0 mi WSW 5.8 mph - N/A   Clear
11:15 PM 30.2 °F 23.4 °F 21.2 °F 69% 30.62 in 10.0 mi WSW 6.9 mph - N/A   Clear
11:35 PM 30.2 °F 23.4 °F 21.2 °F 69% 30.62 in 10.0 mi WSW 6.9 mph - N/A   Clear
11:55 PM 30.2 °F 23.4 °F 21.2 °F 69% 30.61 in 10.0 mi WSW 6.9 mph - N/A   Clear